status,avgMeasuredTime,avgSpeed,extID,medianMeasuredTime,TIMESTAMP,vehicleCount,_id,REPORT_ID
OK,59,40,839,59,2014-08-01T07:55:00,7,20746563,182820
OK,66,36,839,66,2014-08-01T08:00:00,7,20746894,182820
OK,83,29,839,83,2014-08-01T08:05:00,7,20747343,182820
OK,66,36,839,66,2014-08-01T08:10:00,5,20747716,182820
OK,68,35,839,68,2014-08-01T08:15:00,5,20748165,182820
OK,68,35,839,68,2014-08-01T08:20:00,3,20748614,182820
OK,80,30,839,80,2014-08-01T08:25:00,5,20749063,182820
OK,80,30,839,80,2014-08-01T08:30:00,5,20749512,182820
OK,64,37,839,64,2014-08-01T08:35:00,5,20749961,182820
OK,68,35,839,68,2014-08-01T08:40:00,11,20750410,182820
OK,69,34,839,69,2014-08-01T08:45:00,13,20750859,182820
OK,72,33,839,72,2014-08-01T08:50:00,5,20751308,182820
OK,92,26,839,92,2014-08-01T08:55:00,1,20751757,182820
OK,83,29,839,83,2014-08-01T09:00:00,8,20752206,182820
OK,79,30,839,79,2014-08-01T09:05:00,12,20752655,182820
OK,74,32,839,74,2014-08-01T09:10:00,6,20753104,182820
OK,47,51,839,47,2014-08-01T09:15:00,6,20753553,182820
OK,49,49,839,49,2014-08-01T09:20:00,7,20754002,182820
OK,68,35,839,68,2014-08-01T09:25:00,12,20754451,182820
OK,72,33,839,72,2014-08-01T09:30:00,11,20754900,182820
OK,70,34,839,70,2014-08-01T09:35:00,4,20755349,182820
OK,87,27,839,87,2014-08-01T09:40:00,2,20755798,182820
OK,78,30,839,78,2014-08-01T09:45:00,6,20756247,182820
OK,68,35,839,68,2014-08-01T09:50:00,4,20756696,182820
OK,81,29,839,81,2014-08-01T09:55:00,3,20757145,182820
OK,81,29,839,81,2014-08-01T10:00:00,9,20757594,182820
OK,84,28,839,84,2014-08-01T10:05:00,7,20758043,182820
OK,84,28,839,84,2014-08-01T10:10:00,3,20758492,182820
OK,78,30,839,78,2014-08-01T10:15:00,4,20758941,182820
OK,61,39,839,61,2014-08-01T10:20:00,4,20759390,182820
OK,74,32,839,74,2014-08-01T10:25:00,1,20759839,182820
OK,61,39,839,61,2014-08-01T10:30:00,3,20760288,182820
OK,74,32,839,74,2014-08-01T10:35:00,5,20760737,182820
OK,75,32,839,75,2014-08-01T10:40:00,3,20761186,182820
OK,81,29,839,81,2014-08-01T10:45:00,8,20761635,182820
OK,72,33,839,72,2014-08-01T10:50:00,9,20762084,182820
OK,68,35,839,68,2014-08-01T10:55:00,6,20762533,182820
OK,69,34,839,69,2014-08-01T11:00:00,8,20762982,182820
OK,70,34,839,70,2014-08-01T11:05:00,6,20763431,182820
OK,70,34,839,70,2014-08-01T11:10:00,8,20763880,182820
OK,72,33,839,72,2014-08-01T11:15:00,4,20764328,182820
OK,75,32,839,75,2014-08-01T11:20:00,4,20764777,182820
OK,77,31,839,77,2014-08-01T11:25:00,6,20765226,182820
OK,74,32,839,74,2014-08-01T11:30:00,9,20765675,182820
OK,65,37,839,65,2014-08-01T11:35:00,6,20766124,182820
OK,77,31,839,77,2014-08-01T11:40:00,5,20766573,182820
OK,83,29,839,83,2014-08-01T11:45:00,8,20767022,182820
OK,56,43,839,56,2014-08-01T11:50:00,7,20767471,182820
OK,87,27,839,87,2014-08-01T11:55:00,6,20767920,182820
OK,84,28,839,84,2014-08-01T12:00:00,4,20768369,182820
OK,74,32,839,74,2014-08-01T12:05:00,6,20768818,182820
OK,74,32,839,74,2014-08-01T12:10:00,9,20769267,182820
OK,80,30,839,80,2014-08-01T12:15:00,6,20769716,182820
OK,86,28,839,86,2014-08-01T12:20:00,6,20770165,182820
OK,115,20,839,115,2014-08-01T12:25:00,7,20770614,182820
OK,128,18,839,128,2014-08-01T12:30:00,3,20771063,182820
OK,48,50,839,48,2014-08-01T12:35:00,2,20771512,182820
OK,49,49,839,49,2014-08-01T12:40:00,2,20771961,182820
OK,79,30,839,79,2014-08-01T12:45:00,4,20772410,182820
OK,104,23,839,104,2014-08-01T12:50:00,4,20772859,182820
OK,96,25,839,96,2014-08-01T12:55:00,1,20773308,182820
OK,103,23,839,103,2014-08-01T13:00:00,2,20773757,182820
OK,105,22,839,105,2014-08-01T13:05:00,2,20774206,182820
OK,62,38,839,62,2014-08-01T13:10:00,6,20774655,182820
OK,57,42,839,57,2014-08-01T13:15:00,3,20775104,182820
OK,96,25,839,96,2014-08-01T13:20:00,2,20775553,182820
OK,83,29,839,83,2014-08-01T13:25:00,6,20776002,182820
OK,100,24,839,100,2014-08-01T13:30:00,11,20776451,182820
OK,106,22,839,106,2014-08-01T13:35:00,8,20776900,182820
OK,50,48,839,50,2014-08-01T13:40:00,4,20777349,182820
OK,95,25,839,95,2014-08-01T13:45:00,7,20777798,182820
OK,84,28,839,84,2014-08-01T13:50:00,8,20778247,182820
OK,74,32,839,74,2014-08-01T13:55:00,9,20778696,182820
OK,81,29,839,81,2014-08-01T14:00:00,7,20779145,182820
OK,76,31,839,76,2014-08-01T14:05:00,4,20779594,182820
OK,74,32,839,74,2014-08-01T14:10:00,5,20780043,182820
OK,93,25,839,93,2014-08-01T14:15:00,6,20780492,182820
OK,92,26,839,92,2014-08-01T14:20:00,5,20780941,182820
OK,92,26,839,92,2014-08-01T14:25:00,9,20781390,182820
OK,90,26,839,90,2014-08-01T14:30:00,10,20781839,182820
OK,60,40,839,60,2014-08-01T14:35:00,4,20782288,182820
OK,62,38,839,62,2014-08-01T14:40:00,0,20782737,182820
OK,77,31,839,77,2014-08-01T14:45:00,7,20783186,182820
OK,88,27,839,88,2014-08-01T14:50:00,8,20783635,182820
OK,69,34,839,69,2014-08-01T14:55:00,4,20784084,182820
OK,80,30,839,80,2014-08-01T15:00:00,6,20784533,182820
OK,46,52,839,46,2014-08-01T15:05:00,7,20784982,182820
OK,44,54,839,44,2014-08-01T15:10:00,8,20785431,182820
OK,46,52,839,46,2014-08-01T15:15:00,3,20785880,182820
OK,89,27,839,89,2014-08-01T15:20:00,3,20786329,182820
OK,67,36,839,67,2014-08-01T15:25:00,2,20786778,182820
OK,69,34,839,69,2014-08-01T15:30:00,4,20787227,182820
OK,70,34,839,70,2014-08-01T15:35:00,3,20787676,182820
OK,62,38,839,62,2014-08-01T15:40:00,0,20788125,182820
OK,53,45,839,53,2014-08-01T15:45:00,1,20788574,182820
OK,74,32,839,74,2014-08-01T15:50:00,4,20789023,182820
OK,79,30,839,79,2014-08-01T15:55:00,5,20789472,182820
OK,77,31,839,77,2014-08-01T16:00:00,5,20789921,182820
OK,67,36,839,67,2014-08-01T16:05:00,10,20790370,182820
OK,67,36,839,67,2014-08-01T16:10:00,8,20790819,182820
OK,68,35,839,68,2014-08-01T16:15:00,5,20791268,182820
OK,76,31,839,76,2014-08-01T16:20:00,6,20791717,182820
OK,81,29,839,81,2014-08-01T16:25:00,5,20792166,182820
OK,62,38,839,62,2014-08-01T16:30:00,6,20792615,182820
OK,67,36,839,67,2014-08-01T16:35:00,8,20793064,182820
OK,74,32,839,74,2014-08-01T16:40:00,4,20793513,182820
OK,68,35,839,68,2014-08-01T16:45:00,0,20793962,182820
OK,62,38,839,62,2014-08-01T16:50:00,4,20794411,182820
OK,72,33,839,72,2014-08-01T16:55:00,5,20794860,182820
OK,67,36,839,67,2014-08-01T17:00:00,3,20795309,182820
OK,79,30,839,79,2014-08-01T17:05:00,5,20795758,182820
OK,79,30,839,79,2014-08-01T17:10:00,5,20796207,182820
OK,40,60,839,40,2014-08-01T17:15:00,1,20796656,182820
OK,57,42,839,57,2014-08-01T17:20:00,2,20797105,182820
OK,75,32,839,75,2014-08-01T17:25:00,3,20797554,182820
OK,41,58,839,41,2014-08-01T17:30:00,3,20798003,182820
OK,69,34,839,69,2014-08-01T17:35:00,1,20798452,182820
OK,72,33,839,72,2014-08-01T17:40:00,2,20798901,182820
OK,75,32,839,75,2014-08-01T17:45:00,1,20799350,182820
OK,72,33,839,72,2014-08-01T17:50:00,1,20799799,182820
OK,68,35,839,68,2014-08-01T17:55:00,2,20800248,182820
OK,43,56,839,43,2014-08-01T18:00:00,1,20800697,182820
OK,43,56,839,43,2014-08-01T18:05:00,1,20801146,182820
OK,67,36,839,67,2014-08-01T18:10:00,2,20801595,182820
OK,83,29,839,83,2014-08-01T18:15:00,2,20802044,182820
OK,75,32,839,75,2014-08-01T18:20:00,2,20802493,182820
OK,76,31,839,76,2014-08-01T18:25:00,3,20802942,182820
OK,57,42,839,57,2014-08-01T18:30:00,3,20803391,182820
OK,57,42,839,57,2014-08-01T18:35:00,4,20803840,182820
OK,50,48,839,50,2014-08-01T18:40:00,2,20804289,182820
OK,60,40,839,60,2014-08-01T18:45:00,2,20804738,182820
OK,68,35,839,68,2014-08-01T18:50:00,2,20805187,182820
OK,91,26,839,91,2014-08-01T18:55:00,1,20805636,182820
OK,91,26,839,91,2014-08-01T19:00:00,1,20806085,182820
OK,64,37,839,64,2014-08-01T19:05:00,1,20806534,182820
OK,64,37,839,64,2014-08-01T19:10:00,1,20806983,182820
OK,65,37,839,65,2014-08-01T19:15:00,2,20807432,182820
OK,33,73,839,33,2014-08-01T19:20:00,1,20807881,182820
OK,59,40,839,59,2014-08-01T19:25:00,2,20808330,182820
OK,85,28,839,85,2014-08-01T19:30:00,1,20808779,182820
OK,60,40,839,60,2014-08-01T19:35:00,1,20809228,182820
OK,79,30,839,79,2014-08-01T19:40:00,1,20809677,182820
OK,69,34,839,69,2014-08-01T19:45:00,2,20810126,182820
OK,83,29,839,83,2014-08-01T19:50:00,2,20810575,182820
OK,89,27,839,89,2014-08-01T19:55:00,1,20811024,182820
OK,54,44,839,54,2014-08-01T22:00:00,0,20816753,182820
OK,54,44,839,54,2014-08-01T22:05:00,0,20817202,182820
OK,61,39,839,61,2014-08-02T00:00:00,0,20823192,182820
OK,61,39,839,61,2014-08-02T00:05:00,0,20823641,182820
OK,61,39,839,61,2014-08-02T00:10:00,0,20824090,182820
OK,61,39,839,61,2014-08-02T00:15:00,0,20824539,182820
OK,61,39,839,61,2014-08-02T00:20:00,0,20824988,182820
OK,33,73,839,33,2014-08-02T00:25:00,1,20825437,182820
OK,49,49,839,49,2014-08-02T00:30:00,2,20825886,182820
OK,66,36,839,66,2014-08-02T00:35:00,1,20826335,182820
OK,66,36,839,66,2014-08-02T00:40:00,0,20826784,182820
OK,70,34,839,70,2014-08-02T00:45:00,1,20827233,182820
OK,60,40,839,60,2014-08-02T00:50:00,2,20827682,182820
OK,42,57,839,42,2014-08-02T00:55:00,1,20828131,182820
OK,58,41,839,58,2014-08-02T01:00:00,3,20828580,182820
OK,59,40,839,59,2014-08-02T01:05:00,0,20829029,182820
OK,59,40,839,59,2014-08-02T01:10:00,0,20829478,182820
OK,83,29,839,83,2014-08-02T01:15:00,1,20829927,182820
OK,83,29,839,83,2014-08-02T01:20:00,0,20830376,182820
OK,83,29,839,83,2014-08-02T01:25:00,0,20830825,182820
OK,83,29,839,83,2014-08-02T01:30:00,0,20831274,182820
OK,83,29,839,83,2014-08-02T01:35:00,0,20831723,182820
OK,83,29,839,83,2014-08-02T01:40:00,0,20832172,182820
OK,83,29,839,83,2014-08-02T01:45:00,0,20832621,182820
OK,28,86,839,28,2014-08-02T01:50:00,1,20833070,182820
OK,28,86,839,28,2014-08-02T01:55:00,0,20833519,182820
OK,28,86,839,28,2014-08-02T02:00:00,0,20833968,182820
OK,28,86,839,28,2014-08-02T02:05:00,0,20834417,182820
OK,28,86,839,28,2014-08-02T02:10:00,0,20834866,182820
OK,28,86,839,28,2014-08-02T02:15:00,0,20835315,182820
OK,28,86,839,28,2014-08-02T02:20:00,0,20835764,182820
OK,28,86,839,28,2014-08-02T02:25:00,0,20836213,182820
OK,28,86,839,28,2014-08-02T02:30:00,0,20836662,182820
OK,28,86,839,28,2014-08-02T02:35:00,0,20837111,182820
OK,28,86,839,28,2014-08-02T02:40:00,0,20837560,182820
OK,39,61,839,39,2014-08-02T02:45:00,1,20838009,182820
OK,49,49,839,49,2014-08-02T02:50:00,2,20838458,182820
OK,59,40,839,59,2014-08-02T02:55:00,1,20838907,182820
OK,71,33,839,71,2014-08-02T03:00:00,1,20839356,182820
OK,71,33,839,71,2014-08-02T03:05:00,0,20839805,182820
OK,71,33,839,71,2014-08-02T03:10:00,0,20840254,182820
OK,63,38,839,63,2014-08-02T03:15:00,1,20840703,182820
OK,59,40,839,59,2014-08-02T03:20:00,1,20841152,182820
OK,59,40,839,59,2014-08-02T03:25:00,1,20841601,182820
OK,59,40,839,59,2014-08-02T03:30:00,0,20842050,182820
OK,59,40,839,59,2014-08-02T03:35:00,0,20842499,182820
OK,48,50,839,48,2014-08-02T03:40:00,2,20842948,182820
OK,62,38,839,62,2014-08-02T03:45:00,1,20843397,182820
OK,59,40,839,59,2014-08-02T03:50:00,2,20843846,182820
OK,59,40,839,59,2014-08-02T03:55:00,0,20844295,182820
OK,104,23,839,104,2014-08-02T04:50:00,0,20848006,182820
OK,78,30,839,78,2014-08-02T06:00:00,1,20851749,182820
OK,55,43,839,55,2014-08-02T06:05:00,1,20852198,182820
OK,90,26,839,90,2014-08-02T06:10:00,2,20852647,182820
OK,81,29,839,81,2014-08-02T06:15:00,1,20853096,182820
OK,76,31,839,76,2014-08-02T06:20:00,4,20853545,182820
OK,64,37,839,64,2014-08-02T06:25:00,2,20853994,182820
OK,74,32,839,74,2014-08-02T06:30:00,1,20854443,182820
OK,74,32,839,74,2014-08-02T06:35:00,1,20854892,182820
OK,41,58,839,41,2014-08-02T06:40:00,2,20855341,182820
OK,52,46,839,52,2014-08-02T06:45:00,5,20855790,182820
OK,67,36,839,67,2014-08-02T06:50:00,2,20856239,182820
OK,84,28,839,84,2014-08-02T06:55:00,1,20856688,182820
OK,84,28,839,84,2014-08-02T07:00:00,0,20857137,182820
OK,84,28,839,84,2014-08-02T07:05:00,0,20857586,182820
OK,92,26,839,92,2014-08-02T07:10:00,1,20858035,182820
OK,96,25,839,96,2014-08-02T07:15:00,4,20858484,182820
OK,99,24,839,99,2014-08-02T07:20:00,3,20858933,182820
OK,66,36,839,66,2014-08-02T07:25:00,2,20859382,182820
OK,81,29,839,81,2014-08-02T07:30:00,3,20859831,182820
OK,81,29,839,81,2014-08-02T07:35:00,3,20860280,182820
OK,73,33,839,73,2014-08-02T07:40:00,3,20860729,182820
OK,72,33,839,72,2014-08-02T07:45:00,2,20861178,182820
OK,78,30,839,78,2014-08-02T07:50:00,6,20861627,182820
OK,78,30,839,78,2014-08-02T07:55:00,7,20862076,182820
OK,75,32,839,75,2014-08-02T08:00:00,4,20862525,182820
OK,69,34,839,69,2014-08-02T08:05:00,6,20862974,182820
OK,71,33,839,71,2014-08-02T08:10:00,8,20863423,182820
OK,83,29,839,83,2014-08-02T08:15:00,3,20863872,182820
OK,67,36,839,67,2014-08-02T08:20:00,4,20864321,182820
OK,66,36,839,66,2014-08-02T08:25:00,7,20864770,182820
OK,64,37,839,64,2014-08-02T08:30:00,5,20865219,182820
OK,63,38,839,63,2014-08-02T08:35:00,5,20865668,182820
OK,67,36,839,67,2014-08-02T08:40:00,6,20866117,182820
OK,72,33,839,72,2014-08-02T08:45:00,3,20866566,182820
OK,69,34,839,69,2014-08-02T08:50:00,3,20867015,182820
OK,68,35,839,68,2014-08-02T08:55:00,3,20867464,182820
OK,59,40,839,59,2014-08-02T09:00:00,5,20867913,182820
OK,69,34,839,69,2014-08-02T09:05:00,3,20868362,182820
OK,108,22,839,108,2014-08-02T09:10:00,2,20868811,182820
OK,95,25,839,95,2014-08-02T09:15:00,6,20869260,182820
OK,61,39,839,61,2014-08-02T09:20:00,4,20869709,182820
OK,78,30,839,78,2014-08-02T09:25:00,8,20870158,182820
OK,81,29,839,81,2014-08-02T09:30:00,9,20870607,182820
OK,56,43,839,56,2014-08-02T09:35:00,9,20871056,182820
OK,97,24,839,97,2014-08-02T09:40:00,7,20871505,182820
OK,108,22,839,108,2014-08-02T09:45:00,5,20871954,182820
OK,144,16,839,144,2014-08-02T09:50:00,5,20872403,182820
OK,144,16,839,144,2014-08-02T09:55:00,7,20872852,182820
OK,91,26,839,91,2014-08-02T10:00:00,4,20873301,182820
OK,99,24,839,99,2014-08-02T10:05:00,8,20873750,182820
OK,100,24,839,100,2014-08-02T10:10:00,7,20874199,182820
OK,91,26,839,91,2014-08-02T10:15:00,3,20874648,182820
OK,91,26,839,91,2014-08-02T10:20:00,7,20875097,182820
OK,64,37,839,64,2014-08-02T10:25:00,4,20875546,182820
OK,97,24,839,97,2014-08-02T10:30:00,5,20875995,182820
OK,128,18,839,128,2014-08-02T10:35:00,5,20876444,182820
OK,128,18,839,128,2014-08-02T10:40:00,5,20876893,182820
OK,69,34,839,69,2014-08-02T10:45:00,2,20877342,182820
OK,99,24,839,99,2014-08-02T10:50:00,3,20877791,182820
OK,68,35,839,68,2014-08-02T10:55:00,9,20878240,182820
OK,68,35,839,68,2014-08-02T11:00:00,11,20878689,182820
OK,69,34,839,69,2014-08-02T11:05:00,5,20879138,182820
OK,76,31,839,76,2014-08-02T11:10:00,3,20879587,182820
OK,76,31,839,76,2014-08-02T11:15:00,1,20880036,182820
OK,136,17,839,136,2014-08-02T11:20:00,5,20880485,182820
OK,119,20,839,119,2014-08-02T11:25:00,8,20880934,182820
OK,102,23,839,102,2014-08-02T11:30:00,5,20881383,182820
OK,87,27,839,87,2014-08-02T11:35:00,2,20881832,182820
OK,97,24,839,97,2014-08-02T11:40:00,1,20882281,182820
OK,85,28,839,85,2014-08-02T11:45:00,2,20882730,182820
OK,86,28,839,86,2014-08-02T11:50:00,2,20883179,182820
OK,97,24,839,97,2014-08-02T11:55:00,3,20883628,182820
OK,78,30,839,78,2014-08-02T12:00:00,8,20884077,182820
OK,85,28,839,85,2014-08-02T12:05:00,9,20884526,182820
OK,85,28,839,85,2014-08-02T12:10:00,4,20884975,182820
OK,74,32,839,74,2014-08-02T12:15:00,3,20885424,182820
OK,74,32,839,74,2014-08-02T12:20:00,4,20885873,182820
OK,69,34,839,69,2014-08-02T12:25:00,4,20886322,182820
OK,41,58,839,41,2014-08-02T12:30:00,3,20886771,182820
OK,89,27,839,89,2014-08-02T12:35:00,2,20887220,182820
OK,103,23,839,103,2014-08-02T12:40:00,3,20887669,182820
OK,98,24,839,98,2014-08-02T12:45:00,5,20888118,182820
OK,103,23,839,103,2014-08-02T12:50:00,3,20888567,182820
OK,82,29,839,82,2014-08-02T12:55:00,4,20889016,182820
OK,53,45,839,53,2014-08-02T13:00:00,4,20889465,182820
OK,65,37,839,65,2014-08-02T13:05:00,2,20889914,182820
OK,56,43,839,56,2014-08-02T13:10:00,3,20890363,182820
OK,59,40,839,59,2014-08-02T13:15:00,3,20890812,182820
OK,59,40,839,59,2014-08-02T13:20:00,5,20891261,182820
OK,48,50,839,48,2014-08-02T13:25:00,3,20891710,182820
OK,63,38,839,63,2014-08-02T13:30:00,2,20892159,182820
OK,63,38,839,63,2014-08-02T13:35:00,2,20892608,182820
OK,90,26,839,90,2014-08-02T13:40:00,3,20893057,182820
OK,90,26,839,90,2014-08-02T13:45:00,3,20893506,182820
OK,80,30,839,80,2014-08-02T13:50:00,3,20893955,182820
OK,73,33,839,73,2014-08-02T13:55:00,4,20894404,182820
OK,55,43,839,55,2014-08-02T14:00:00,6,20894853,182820
OK,50,48,839,50,2014-08-02T14:05:00,5,20895302,182820
OK,63,38,839,63,2014-08-02T14:10:00,5,20895751,182820
OK,76,31,839,76,2014-08-02T14:15:00,5,20896200,182820
OK,48,50,839,48,2014-08-02T14:20:00,2,20896649,182820
OK,56,43,839,56,2014-08-02T14:25:00,2,20897098,182820
OK,49,49,839,49,2014-08-02T14:30:00,2,20897547,182820
OK,54,44,839,54,2014-08-02T14:35:00,3,20897996,182820
OK,83,29,839,83,2014-08-02T14:40:00,2,20898445,182820
OK,55,43,839,55,2014-08-02T14:45:00,2,20898894,182820
OK,74,32,839,74,2014-08-02T14:50:00,3,20899343,182820
OK,80,30,839,80,2014-08-02T14:55:00,0,20899792,182820
OK,80,30,839,80,2014-08-02T15:00:00,0,20900241,182820
OK,51,47,839,51,2014-08-02T15:05:00,1,20900690,182820
OK,51,47,839,51,2014-08-02T15:10:00,1,20901139,182820
OK,51,47,839,51,2014-08-02T15:15:00,0,20901588,182820
OK,51,47,839,51,2014-08-02T15:20:00,0,20902037,182820
OK,46,52,839,46,2014-08-02T15:25:00,1,20902486,182820
OK,68,35,839,68,2014-08-02T15:30:00,4,20902935,182820
OK,69,34,839,69,2014-08-02T15:35:00,4,20903384,182820
OK,69,34,839,69,2014-08-02T15:40:00,3,20903833,182820
OK,67,36,839,67,2014-08-02T15:45:00,4,20904282,182820
OK,61,39,839,61,2014-08-02T15:50:00,4,20904731,182820
OK,67,36,839,67,2014-08-02T15:55:00,3,20905180,182820
OK,68,35,839,68,2014-08-02T16:00:00,6,20905629,182820
OK,44,54,839,44,2014-08-02T16:05:00,2,20906078,182820
OK,71,33,839,71,2014-08-02T16:10:00,2,20906527,182820
OK,81,29,839,81,2014-08-02T16:15:00,3,20906976,182820
OK,81,29,839,81,2014-08-02T16:20:00,3,20907425,182820
OK,68,35,839,68,2014-08-02T16:25:00,3,20907874,182820
OK,70,34,839,70,2014-08-02T16:30:00,2,20908323,182820
OK,72,33,839,72,2014-08-02T16:35:00,0,20908772,182820
OK,61,39,839,61,2014-08-02T16:40:00,5,20909221,182820
OK,60,40,839,60,2014-08-02T16:45:00,6,20909670,182820
OK,86,28,839,86,2014-08-02T16:50:00,1,20910119,182820
OK,86,28,839,86,2014-08-02T16:55:00,0,20910568,182820
OK,86,28,839,86,2014-08-02T17:00:00,0,20911017,182820
OK,78,30,839,78,2014-08-02T17:05:00,2,20911466,182820
OK,78,30,839,78,2014-08-02T17:10:00,0,20911915,182820
OK,51,47,839,51,2014-08-02T17:15:00,1,20912364,182820
OK,51,47,839,51,2014-08-02T17:20:00,0,20912813,182820
OK,51,47,839,51,2014-08-02T17:25:00,0,20913262,182820
OK,82,29,839,82,2014-08-02T17:30:00,2,20913711,182820
OK,82,29,839,82,2014-08-02T17:35:00,2,20914160,182820
OK,77,31,839,77,2014-08-02T17:40:00,2,20914609,182820
OK,85,28,839,85,2014-08-02T17:45:00,4,20915058,182820
OK,94,25,839,94,2014-08-02T17:50:00,1,20915507,182820
OK,94,25,839,94,2014-08-02T17:55:00,0,20915956,182820
OK,43,56,839,43,2014-08-02T18:00:00,1,20916405,182820
OK,61,39,839,61,2014-08-02T18:05:00,2,20916854,182820
OK,79,30,839,79,2014-08-02T18:10:00,1,20917303,182820
OK,79,30,839,79,2014-08-02T18:15:00,0,20917752,182820
OK,61,39,839,61,2014-08-02T18:20:00,2,20918201,182820
OK,69,34,839,69,2014-08-02T18:25:00,3,20918650,182820
OK,91,26,839,91,2014-08-02T18:30:00,0,20919099,182820
OK,91,26,839,91,2014-08-02T18:35:00,0,20919548,182820
OK,91,26,839,91,2014-08-02T18:40:00,0,20919997,182820
OK,91,26,839,91,2014-08-02T18:45:00,0,20920446,182820
OK,91,26,839,91,2014-08-02T18:50:00,0,20920895,182820
OK,91,26,839,91,2014-08-02T18:55:00,0,20921344,182820
OK,91,26,839,91,2014-08-02T19:00:00,0,20921793,182820
OK,91,26,839,91,2014-08-02T19:05:00,0,20922242,182820
OK,91,26,839,91,2014-08-02T19:10:00,0,20922691,182820
OK,91,26,839,91,2014-08-02T19:15:00,0,20923140,182820
OK,91,26,839,91,2014-08-02T19:20:00,0,20923589,182820
OK,82,29,839,82,2014-08-02T19:25:00,3,20924038,182820
OK,85,28,839,85,2014-08-02T19:30:00,2,20924487,182820
OK,53,45,839,53,2014-08-02T19:35:00,1,20924936,182820
OK,53,45,839,53,2014-08-02T19:40:00,1,20925385,182820
OK,75,32,839,75,2014-08-02T19:45:00,2,20925834,182820
OK,66,36,839,66,2014-08-02T19:50:00,1,20926283,182820
OK,66,36,839,66,2014-08-02T19:55:00,0,20926732,182820
OK,46,52,839,46,2014-08-02T20:00:00,2,20927181,182820
OK,47,51,839,47,2014-08-02T20:05:00,3,20927630,182820
OK,47,51,839,47,2014-08-02T20:10:00,0,20928079,182820
OK,77,31,839,77,2014-08-02T20:15:00,1,20928528,182820
OK,77,31,839,77,2014-08-02T20:20:00,0,20928977,182820
OK,38,63,839,38,2014-08-02T20:25:00,2,20929426,182820
OK,81,29,839,81,2014-08-02T20:30:00,2,20929875,182820
OK,81,29,839,81,2014-08-02T20:35:00,2,20930324,182820
OK,81,29,839,81,2014-08-02T20:40:00,0,20930773,182820
OK,81,29,839,81,2014-08-02T20:45:00,0,20931222,182820
OK,76,31,839,76,2014-08-02T20:50:00,1,20931671,182820
OK,76,31,839,76,2014-08-02T20:55:00,0,20932120,182820
OK,70,34,839,70,2014-08-02T21:00:00,1,20932569,182820
OK,70,34,839,70,2014-08-02T21:05:00,1,20933018,182820
OK,45,53,839,45,2014-08-02T21:10:00,1,20933467,182820
OK,45,53,839,45,2014-08-02T21:15:00,1,20933916,182820
OK,45,53,839,45,2014-08-02T21:20:00,0,20934365,182820
OK,79,30,839,79,2014-08-02T21:25:00,1,20934814,182820
OK,79,30,839,79,2014-08-02T21:30:00,0,20935263,182820
OK,79,30,839,79,2014-08-02T21:35:00,0,20935712,182820
OK,79,30,839,79,2014-08-02T21:40:00,0,20936161,182820
OK,66,36,839,66,2014-08-02T21:45:00,2,20936610,182820
OK,66,36,839,66,2014-08-02T21:50:00,2,20937059,182820
OK,81,29,839,81,2014-08-02T21:55:00,1,20937508,182820
OK,81,29,839,81,2014-08-02T22:00:00,0,20937957,182820
OK,49,49,839,49,2014-08-02T22:05:00,1,20938406,182820
OK,49,49,839,49,2014-08-02T22:10:00,1,20938855,182820
OK,51,47,839,51,2014-08-02T22:15:00,1,20939304,182820
OK,51,47,839,51,2014-08-02T22:20:00,1,20939753,182820
OK,51,47,839,51,2014-08-02T22:25:00,0,20940202,182820
OK,51,47,839,51,2014-08-02T22:30:00,0,20940651,182820
OK,51,47,839,51,2014-08-02T22:35:00,0,20941100,182820
OK,51,47,839,51,2014-08-02T22:40:00,0,20941549,182820
OK,64,37,839,64,2014-08-02T22:45:00,1,20941998,182820
OK,49,49,839,49,2014-08-02T22:50:00,2,20942447,182820
OK,46,52,839,46,2014-08-02T22:55:00,2,20942896,182820
OK,58,41,839,58,2014-08-02T23:00:00,1,20943345,182820
OK,44,54,839,44,2014-08-02T23:10:00,6,20943794,182820
OK,44,54,839,44,2014-08-02T23:15:00,1,20944243,182820
OK,70,34,839,70,2014-08-02T23:20:00,1,20944692,182820
OK,55,43,839,55,2014-08-02T23:25:00,2,20945141,182820
OK,41,58,839,41,2014-08-02T23:30:00,0,20945590,182820
OK,41,58,839,41,2014-08-02T23:35:00,0,20946039,182820
OK,41,58,839,41,2014-08-02T23:40:00,0,20946488,182820
OK,73,33,839,73,2014-08-02T23:45:00,1,20946937,182820
OK,73,33,839,73,2014-08-02T23:50:00,1,20947386,182820
OK,73,33,839,73,2014-08-02T23:55:00,0,20947835,182820
OK,73,33,839,73,2014-08-03T00:00:00,0,20948284,182820
OK,51,47,839,51,2014-08-03T00:05:00,1,20948733,182820
OK,51,47,839,51,2014-08-03T00:10:00,0,20949181,182820
OK,51,47,839,51,2014-08-03T00:15:00,0,20949630,182820
OK,51,47,839,51,2014-08-03T00:20:00,0,20950079,182820
OK,37,65,839,37,2014-08-03T00:25:00,1,20950528,182820
OK,37,65,839,37,2014-08-03T00:30:00,0,20950977,182820
OK,37,65,839,37,2014-08-03T00:35:00,0,20951426,182820
OK,37,65,839,37,2014-08-03T00:40:00,0,20951875,182820
OK,71,33,839,71,2014-08-03T00:45:00,2,20952324,182820
OK,71,33,839,71,2014-08-03T00:50:00,2,20952773,182820
OK,63,38,839,63,2014-08-03T00:55:00,0,20953222,182820
OK,63,38,839,63,2014-08-03T01:00:00,0,20953671,182820
OK,63,38,839,63,2014-08-03T01:05:00,0,20954120,182820
OK,63,38,839,63,2014-08-03T01:10:00,0,20954569,182820
OK,63,38,839,63,2014-08-03T01:15:00,0,20955018,182820
OK,63,38,839,63,2014-08-03T01:20:00,0,20955467,182820
OK,65,37,839,65,2014-08-03T01:25:00,1,20955916,182820
OK,64,37,839,64,2014-08-03T01:30:00,3,20956365,182820
OK,64,37,839,64,2014-08-03T01:35:00,1,20956814,182820
OK,65,37,839,65,2014-08-03T01:40:00,3,20957263,182820
OK,70,34,839,70,2014-08-03T01:45:00,2,20957712,182820